{"data":{"norad_id":51814,"intl_designator":"2022-017AY","name":"STARLINK-3599","alt_names":[],"object_type":"PAYLOAD","status":"ACTIVE","operator":null,"country":"US","launch_date":"2022-02-25","launch_site_code":"AFWTR","launch_vehicle":null,"mission":null,"orbit_class":"UNKNOWN","rcs_meters":null,"size_class":null,"mass_kg":null,"dimensions":null,"purposes":["comms"],"wikipedia_slug":null,"has_3d_model":false,"image_url":null,"decayed_at":null,"tle_current":{"epoch":"2026-05-24T22:30:16.396128Z","epoch_age_seconds":74437,"freshness":"FRESH","line1":"1 51814U 22017AY  26144.93768977  .00000447  00000+0  46156-4 0  9994","line2":"2 51814  53.2139 346.8310 0001209  81.7715 278.3414 15.08838013235590","mean_motion":15.08838013,"eccentricity":0.0001209,"inclination_deg":53.2139,"raan_deg":346.831,"arg_perigee_deg":81.7715,"mean_anomaly_deg":278.3414,"bstar":4.6156e-5,"rev_number":23559,"period_min":95.437680360191,"perigee_km":538.91308996155,"apogee_km":540.58583490817,"semimajor_km":6917.8864624349,"source":"CELESTRAK","updated_at":"2026-05-25T13:38:16.958781Z"}}}